www.pogodaiklimat.ru

Погода и климат >> Архив погоды >> Россия >> Челябинская область >> Челябинск


АРХИВ ПОГОДЫ в Челябинске

Время (UTC), дата Ветер
(напр.,м/с)
 
Видим.   Явления Облачность Т
(С)
Тd
(С)
f
(%)
Тe
(С)
Тes
(С)
Комфортность P
(гПа)
Po
(гПа)
Тmin
(С)
Tmax
(С)
R
(мм)
R24
(мм)
S
(см)
09 13.06 СЗ 4
{12}
10 км 8/8 300 м
[Cb calv]
+14.9 -1.4 33 +14 +16 очень
холодно
1010.7 983.1
12 13.06 СЗ 4
{12}
10 км 9/9 300 м
[Cb calv]
+12.9 -2.2 35 +12 +12 очень
холодно
1011.9 984.1
15 13.06 СЗ 4
{11}
10 км {ливн. осадки} 6/6 300 м
[Cb calv]
+11.2 -0.5 44 +9 +10 очень
холодно
1012.8 984.8 +15.4 0.0
18 13.06 СЗ 2 10 км {ливн. осадки} 3/0
[Ac lent]
+8.3 +0.3 57 +7 +7 очень
холодно
1014.0 985.7
21 13.06 СЗ 3 4000 м 10/0
[As op]
+8.2 +0.8 60 +6 +6 очень
холодно
1014.3 986.0
00 14.06 СЗ 2 10 км 5/0
[Ac trans]
+6.2 +1.1 70 +4 +4 очень
холодно
1014.9 986.4
03 14.06 СЗ 2 10 км 4/0
[Ac lent]
+8.9 +0.8 57 +8 +11 очень
холодно
1014.7 986.5 +6.0
06 14.06 СЗ 3
{10}
10 км 5/0
[Ci sp]
+13.9 -3.7 29 +13 +24 опасность
простуды
1013.1 985.4
09 14.06 СЗ 3
{11}
10 км 6/6 300 м
[Cb calv]
+15.8 -2.9 28 +16 +21 холодно 1011.0 983.5
12 14.06 СЗ 4 10 км 9/9 300 м
[Cb calv]
+16.1 -2.7 27 +16 +16 очень
холодно
1010.0 982.6
15 14.06 СЗ 2 10 км 8/8 300 м
[Cb calv]
+15.6 -2.4 29 +16 +16 холодно 1009.0 981.5 +17.0
18 14.06 З 2 10 км 6/6 300 м
[Cb calv]
+10.6 +0.3 49 +10 +10 очень
холодно
1009.2 981.4
21 14.06 СЗ 2 4000 м 9/9 300 м
[Cb calv]
+9.6 +2.3 60 +8 +8 очень
холодно
1008.9 980.9
00 15.06 З 1 10 км 10/10 300 м
[Cb calv]
+9.1 +4.4 72 +9 +9 прохладно 1008.6 980.6
03 15.06 СЗ 2 10 км 5/0
[Ci fib]
+11.6 +4.8 63 +11 +15 холодно 1008.5 980.7 +9.0
06 15.06 С 3 10 км 6/6 300 м
[Cb calv]
+16.9 +0.8 34 +17 +21 прохладно 1007.6 980.3
09 15.06 СЗ 2
{10}
10 км {ливн. осадки} 8/8 300 м
[Cb calv]
+16.0 +3.4 43 +16 +19 холодно 1007.8 980.5
12 15.06 СЗ 2 10 км {ливн. осадки} 8/8 300 м
[Cb calv]
+17.3 +0.5 32 +18 +19 холодно 1007.6 980.4
15 15.06 СЗ 2 10 км 8/8 300 м
[Cb calv]
+14.3 +2.1 44 +14 +14 холодно 1008.5 980.9 +18.2 0.0
18 15.06 З 1 10 км 4/4 300 м
[Cb calv]
+10.5 +3.4 61 +10 +10 очень
холодно
1008.6 980.7
21 15.06 З 2 10 км 8/8 300 м
[Cb calv]
+9.6 +4.1 69 +8 +8 очень
холодно
1008.3 980.3
00 16.06 З 1 10 км 8/8 300 м
[Cb calv]
+9.4 +4.4 71 +9 +9 холодно 1007.9 979.9
03 16.06 З 2 10 км 6/0
[Ci fib]
+13.6 +4.5 54 +13 +18 прохладно 1006.9 979.4 +8.5
06 16.06 З 3 20 км 6/6 300 м
[Cb calv]
+17.9 -0.2 29 +18 +23 прохладно 1005.5 978.3
09 16.06 З 3 20 км 9/9 300 м
[Cb calv]
+18.5 -0.7 27 +19 +20 прохладно 1004.3 977.2
12 16.06 З 2
{11}
10 км слаб. ливневой дождь 10/10 300 м
[Cb calv]
+12.6 +6.5 66 +12 +12 очень
холодно
1005.5 977.9
15 16.06 З 1 10 км в посл. час ливневой дождь 9/9 300 м
[Cb calv]
+10.8 +8.4 85 +10 +11 очень
холодно
1005.7 978.0 +20.0 3
18 16.06 СЗ 1 10 км {ливн. осадки} 9/9 300 м
[Cb calv]
+10.2 +7.6 84 +10 +10 очень
холодно
1006.0 978.2
21 16.06 З 1 4000 м 9/9 300 м
[Cb calv]
+9.3 +5.2 76 +9 +9 холодно 1006.2 978.3
00 17.06 СЗ 3 10 км в посл. час ливневой дождь 8/8 300 м
[Cb calv]
+8.8 +5.1 78 +6 +6 очень
холодно
1006.6 978.6
03 17.06 С 2 20 км 6/4 300 м
[Cb calv Ci fib]
+11.0 +4.5 64 +10 +13 очень
холодно
1007.5 979.7 +8.6 0.0
06 17.06 СЗ 3 10 км 8/8 300 м
[Cb calv]
+13.2 +1.3 44 +12 +15 очень
холодно
1007.4 979.8
09 17.06 СЗ 4 20 км 8/8 300 м
[Cb calv]
+15.6 +0.8 37 +15 +17 очень
холодно
1007.1 979.7
12 17.06 СЗ 4 20 км 6/6 300 м
[Cb calv]
+17.8 -0.1 30 +18 +20 холодно 1006.2 979.0
15 17.06 З 1 10 км 8/6 300 м
[Cb calv Ci fib]
+14.9 +1.5 40 +16 +16 холодно 1006.2 978.8 +18.2
18 17.06 З 1 4000 м слаб. ливневой дождь 10/10 300 м
[Cb calv]
+11.8 +6.1 68 +12 +12 холодно 1005.7 978.0
21 17.06 Ю 1 4000 м {ливн. осадки} 10/10 300 м
[Cb calv]
+11.3 +8.0 80 +11 +11 холодно 1003.5 975.8
00 18.06 СЗ 3 10 км слаб. ливневой дождь 10/10 300 м
[Cb calv]
+10.1 +7.8 86 +8 +8 холодно 1003.4 975.7
03 18.06 СЗ 3 10 км {ливн. осадки} 10/10 300 м
[Cb calv]
+10.4 +7.3 81 +8 +8 очень
холодно
1005.4 977.6 +9.7 1
06 18.06 С 4-10
{10}
10 км {ливн. осадки} 8/8 300 м
[Cb calv]
+13.4 +5.6 59 +12 +14 очень
холодно
1006.5 979.0
09 18.06 СЗ 3
{10}
10 км 10/10 300 м
[Cb calv]
+16.1 +2.6 40 +16 +16 холодно 1007.6 980.3
12 18.06 СЗ 3
{11}
10 км 9/9 300 м
[Cb calv]
+16.5 +0.7 34 +16 +17 очень
холодно
1008.2 980.9
15 18.06 СЗ 2 10 км 6/6 300 м
[Cb calv]
+15.1 +1.7 40 +15 +15 холодно 1008.9 981.4 +17.3
18 18.06 З 1 10 км 4/0
[Ci fib]
+10.6 +2.5 57 +11 +11 холодно 1010.5 982.6
21 18.06 штиль 0 10 км ясно +6.3 +2.9 79 +5 +5 очень
холодно
1011.5 983.1
00 19.06 Ю 1 10 км ясно +5.9 +3.0 82 +5 +5 очень
холодно
1012.2 983.8
03 19.06 Ю 1 10 км ясно +13.6 +6.3 61 +14 +20 прохладно 1012.1 984.4 +5.9
06 19.06 Ю 2 10 км 6/0
[Ci fib]
+19.2 +2.8 34 +20 +32 по сезону 1011.2 984.0
09 19.06 З 2 10 км 4/0
[Ci fib]
+22.2 +2.8 28 +22 +36 комфорт 1010.2 983.3
12 19.06 ЮЗ 3 10 км 5/0
[Ci fib]
+23.5 +2.9 26 +23 +29 комфорт 1009.4 982.7
15 19.06 З 1 10 км 6/0
[Ci fib]
+22.9 +3.5 28 +23 +23 комфорт 1009.5 982.7 +23.9
18 19.06 СЗ 1 4000 м ясно +15.8 +7.2 57 +17 +17 по сезону 1010.9 983.5
21 19.06 ЮЗ 1 10 км ясно +11.3 +7.4 77 +11 +11 холодно 1011.8 983.9
00 20.06 штиль 0 10 км 6/0
[Ci fib]
+10.3 +7.6 83 +10 +10 холодно 1012.4 984.4
03 20.06 ЮВ 1 10 км ясно +17.0 +9.8 63 +18 +24 по сезону 1012.2 984.8 +10.0

 

Местоположение метеостанции Челябинск (Челябинская область, Россия): широта 55.15 долгота 61.30 высота над уровнем моря 237 м.

В архиве по умолчанию представлена погода в Челябинске за последнюю неделю. Архивные данные за месяц целиком и за предыдущие месяцы, начиная с января 2011 года, Вы можете получить, выбрав интересующий диапазон дат из раскрывающегося списка и нажав кнопку "Ввод!".


*Определитесь, кто Вы:
робот инопланетянин человек

Внимание! Время в таблицах - всемирное. Для получения местного времени необходимо прибавить поправку, которая равна 5 ч.

Смотрите также архив погоды в соседних городах и на ближайших метеорологических станциях:

Погода в Аргаяше (Челябинская область, Россия) (51 км)
Погода в Бродокалмаке (Челябинская область, Россия) (68 км)
Погода в Миассе (Челябинская область, Россия) (79 км)
Погода в Южноуральске (Челябинская область, Россия) (80 км)
Погода в Мирном (Челябинская область, Россия) (92 км)
Погода в Златоусте (Челябинская область, Россия) (104 км)
Погода в Троицке (Челябинская область, Россия) (121 км)
Погода в Верхнем Уфалее (Челябинская область, Россия) (121 км)
Погода в Октябрьском (Челябинская область, Россия) (121 км)
Погода в Шумихе (Курганская область, Россия) (129 км)

Пояснения к столбцам:

Ветер - указаны скорость ветра в м/с - средняя за 10 мин, порывы в срок и между сроками (в фигурных скобках) и направление, откуда дует ветер: С - северный, СВ - северо-восточный, В - восточный, ЮВ - юго-восточный, Ю - южный, ЮЗ - юго-западный, З - западный, СЗ - северо-западный.
Видимость - горизонтальная дальность видимости в метрах или километрах. При видимости от 1 до 10 км при отсутствии осадков обычно наблюдается дымка, при ухудшении видимости до 1 км и менее - туман. В сухую погоду видимость может ухудшаться дымом, пылью или мглою.
Явления - указаны атмосферные явления, наблюдавшиеся в срок или в последний час перед сроком; фигурными скобками обозначены явления, наблюдавшиеся между сроками (за 1-3 часа до срока); квадратными скобками обозначены град или гололедные отложения с указанием их диаметра в мм.
Облачность - указаны через наклонную черту общая и нижняя облачность в баллах и высота нижней границы облаков в метрах; квадратными скобками обозначены формы облаков: Ci - перистые, Cs - перисто-слоистые, Cc - перисто-кучевые, Ac - высококучевые, As - высокослоистые, Sc - слоисто-кучевые, Ns - слоисто-дождевые, Cu - кучевые, Cb - кучево-дождевые. Подробнее классификацию облаков см. в Атласе облаков (PDF).
T - Температура воздуха - температура, измеренная на высоте 2 м над землей.
Td - Температура точки росы - температура, при понижении до которой содержащийся в воздухе водяной пар достигнет насыщения.
f - Относительная влажность воздуха - влажноcть воздуха, измеренная на высоте 2 м над землей.
Te - Эффективная температура - температура, которую ощущает одетый по сезону человек в тени. Характеристика душности погоды. При расчете учитывается влияние влажности воздуха и скорости ветра на теплоощущения человека.
Tes - Эффективная температура на солнце - температура, которую ощущает человек, с поправкой на солнечный нагрев. Характеристика знойности погоды. Зависит от высоты солнца над горизонтом, облачности и скорости ветра. Ночью, в пасмурную погоду, а также при ветре 12 м/с и более поправка равна нулю.
P - Атмосферное давление - приведенное к уровню моря атмосферное давление.
Po - Атмосферное давление - измеренное на уровне метеостанции атмосферное давление.
Tmin - Минимальная температура - минимум температуры воздуха на высоте 2 м над землей.
Tmax - Максимальная температура - максимум температуры воздуха на высоте 2 м над землей.
R - Количество осадков - Количество выпавших осадков за период времени, мм. При наведении курсора мыши на число - период времени, за который выпало указанное количество осадков.
R24 - Количество осадков - Количество выпавших осадков за 24 часа, мм.
S - Снежный покров - Высота снежного покрова, см. При наведении курсора мыши на число - состояние снежного покрова и степень покрытия местности в баллах.